Tracking 19636 objects as of 24-May-2019
HD Live streaming from Space Station
objects crossing your sky now

S-NET D

Track S-NET D now!
10-day predictions
S-NET D is classified as:


NORAD ID: 43186
Int'l Code: 2018-014G
Perigee: 575.6 km
Apogee: 593.3 km
Inclination: 97.7 °
Period: 96.2 minutes
Semi major axis: 6955 km
RCS: Unknown
Launch date: February 1, 2018
Source: Germany (GER)
Launch site: VOSTOCHNY COSMODROME (VOSTO)

Uplink (MHz):
Downlink (MHz): 435.950//2263.000
Beacon (MHz):
Mode: 1k2/2k4 FFSK
Call sign: DP0TBB
Status: Active

aabbcc
Your satellite tracking list
Your tracking list is empty




NASA's NSSDC Master Catalog

Two Line Element Set (TLE):
1 43186U 18014G   19144.28631447  .00000478  00000-0  46952-4 0  9999
2 43186  97.7110  53.1072 0012664  91.2623 269.0049 14.96630599 71335
Source of the keplerian elements: AMSAT